Total_Precipitation_Accumulation
3.28 3.43 3.57 3.53 3.14 3.09 3.39 3.67 3.56 3.63 3.55 3.31 2.96 2.78 2.66 2.62 2.51 2.70 2.95 2.78 2.69 2.89 3.31 3.55 3.46 3.25 3.04 2.67 2.29 2.17 2.18 2.17 2.02 1.72 1.66 1.76 1.81 1.76 1.59 1.38 1.27 1.21 1.03
3.22 3.52 3.63 3.59 3.20 3.05 3.25 3.45 3.35 3.66 3.58 3.53 3.13 2.89 2.77 2.65 2.42 2.57 2.89 2.98 2.78 2.76 3.06 3.59 3.88 3.75 3.58 3.39 2.89 2.56 2.48 2.46 2.32 1.88 1.63 1.64 1.70 1.73 1.69 1.61 1.45 1.33 1.13
3.24 3.31 3.33 3.36 3.33 3.12 3.24 3.33 3.35 3.52 3.37 3.22 3.20 3.09 2.95 2.88 2.59 2.59 2.74 3.02 2.88 2.74 2.88 3.28 3.73 3.85 3.74 3.83 3.66 3.27 2.92 2.76 2.58 2.18 1.87 1.69 1.63 1.62 1.70 1.72 1.60 1.38 1.13
3.27 3.46 3.22 3.13 3.44 3.33 3.44 3.76 3.68 3.77 3.89 3.71 3.48 3.19 3.02 3.11 2.68 2.63 2.75 3.05 3.24 2.80 2.99 3.30 3.63 3.72 3.87 4.20 4.39 4.24 3.70 3.23 2.92 2.70 2.47 2.19 1.94 1.82 1.66 1.64 1.63 1.43 1.20
3.26 3.62 3.49 3.53 3.56 3.57 3.61 3.25 3.78 4.09 4.16 3.99 3.47 3.24 2.96 2.95 2.78 2.62 2.71 2.66 2.88 2.92 2.97 3.05 3.43 3.51 3.86 4.45 4.79 4.93 4.72 4.27 3.84 3.66 3.48 3.04 2.71 2.30 1.88 1.70 1.58 1.38 1.21
3.50 3.81 3.70 3.64 3.56 3.71 3.71 3.69 4.13 4.10 3.84 3.87 3.19 2.90 2.80 2.60 2.60 2.57 2.36 2.42 2.59 2.55 2.71 2.84 3.18 2.81 3.15 3.63 4.06 4.56 5.04 5.18 4.77 4.62 4.60 4.26 3.77 2.98 2.21 1.88 1.61 1.44 1.32
3.42 3.78 3.61 3.86 3.79 3.65 3.57 3.54 3.89 3.99 3.71 3.90 3.87 3.42 2.85 2.34 2.35 2.24 2.20 2.37 2.37 2.43 2.65 2.98 3.30 3.26 3.00 2.94 2.99 3.51 4.51 5.39 5.56 5.23 5.26 5.30 4.77 3.78 2.84 2.30 1.87 1.62 1.49
3.19 3.23 3.55 3.36 3.46 3.64 3.53 3.64 3.96 3.86 3.49 3.96 4.19 4.34 3.68 3.19 2.57 2.00 2.31 2.48 2.54 2.77 2.75 2.91 3.35 3.61 3.36 3.48 2.92 2.72 3.59 4.65 5.28 5.31 5.27 5.35 4.99 4.19 3.40 2.89 2.29 1.85 1.64
2.97 3.10 3.26 3.33 3.40 3.32 3.44 3.65 3.73 3.78 3.69 3.82 4.05 4.40 4.06 3.54 2.96 2.32 2.15 2.29 2.63 2.92 2.87 2.93 2.94 3.24 3.27 3.69 3.77 3.17 2.93 3.20 3.94 4.89 5.42 5.31 4.72 3.98 3.40 3.14 2.85 2.31 1.88
2.94 3.01 3.13 3.20 3.26 3.09 3.24 3.08 3.21 3.70 3.82 3.65 3.81 3.72 3.70 3.63 3.45 2.88 2.37 2.19 2.35 2.50 2.62 2.50 2.49 2.79 3.09 3.49 3.69 3.37 2.99 2.74 2.97 3.95 4.65 4.78 4.44 3.84 3.39 3.28 3.44 3.13 2.45
2.84 2.61 2.73 2.98 3.06 2.93 2.85 2.87 3.12 3.26 3.23 3.25 3.42 3.49 3.56 3.58 3.26 3.08 2.69 2.37 2.20 1.96 2.05 2.16 2.25 2.35 2.54 3.08 3.47 3.12 2.91 2.58 2.58 2.98 3.47 3.78 3.92 3.71 3.36 3.30 3.63 3.82 3.46
2.57 2.40 2.44 2.71 2.81 2.77 2.71 2.68 2.76 2.82 2.88 2.93 3.04 3.10 3.30 3.35 3.31 3.40 2.92 2.51 2.29 1.79 1.71 1.87 1.99 2.09 2.28 2.59 2.61 2.64 2.37 2.24 2.26 2.30 2.36 2.73 3.20 3.46 3.52 3.54 3.80 4.11 4.25
2.34 2.33 2.36 2.50 2.52 2.48 2.43 2.50 2.57 2.61 2.77 2.88 2.89 2.95 3.06 3.07 3.16 3.33 3.21 2.73 2.49 1.94 1.86 1.88 1.89 2.09 2.08 2.35 2.64 2.47 2.10 2.00 1.91 1.86 1.82 1.92 2.23 2.60 2.89 3.13 3.46 3.83 4.12
2.11 2.16 2.13 2.13 2.15 2.16 2.14 2.46 2.50 2.62 2.79 2.87 2.74 3.09 3.09 2.93 3.09 3.18 3.28 3.43 3.20 2.69 2.41 2.18 1.97 1.90 1.97 2.19 2.48 2.37 1.94 1.86 1.66 1.55 1.52 1.55 1.67 1.83 2.03 2.33 2.75 3.12 3.30
1.94 1.95 1.94 2.07 2.06 2.11 2.25 2.44 2.45 2.52 2.79 2.85 2.86 3.10 3.08 2.90 2.92 3.05 3.33 3.64 3.83 3.42 3.02 2.78 2.45 1.98 1.94 2.06 2.28 1.95 1.79 1.70 1.52 1.37 1.33 1.32 1.39 1.46 1.58 1.73 1.96 2.25 2.46
1.73 1.77 1.80 1.88 1.94 1.98 2.12 2.35 2.35 2.42 2.58 2.64 2.72 2.81 2.86 2.77 2.87 2.96 3.20 3.38 3.59 3.69 3.19 2.81 2.61 2.10 1.96 1.78 2.04 1.76 1.70 1.82 1.66 1.52 1.42 1.33 1.30 1.32 1.39 1.48 1.59 1.73 1.88
1.67 1.69 1.76 1.85 1.89 1.93 2.09 2.25 2.23 2.33 2.33 2.36 2.36 2.50 2.64 2.87 2.83 2.66 2.81 2.98 3.21 3.47 3.12 2.82 2.63 2.38 2.37 2.26 2.17 2.06 1.89 1.83 1.66 1.61 1.51 1.44 1.39 1.34 1.32 1.33 1.39 1.51 1.64
1.56 1.61 1.71 1.80 1.79 1.90 2.10 2.19 2.18 2.32 2.39 2.37 2.46 2.58 2.54 2.65 2.73 2.62 2.63 2.68 2.93 3.18 3.08 2.93 2.97 2.81 2.60 2.46 2.42 2.30 1.94 1.77 1.74 1.65 1.48 1.39 1.37 1.34 1.30 1.30 1.37 1.44 1.53
1.52 1.56 1.57 1.61 1.68 1.80 1.97 2.06 2.20 2.32 2.45 2.51 2.50 2.40 2.29 2.44 2.57 2.73 2.73 2.65 2.69 2.83 3.04 2.94 2.90 2.97 2.70 2.47 2.57 2.43 2.19 2.17 1.74 1.65 1.52 1.39 1.36 1.33 1.28 1.28 1.31 1.36 1.40
1.51 1.57 1.58 1.66 1.72 1.77 1.83 1.96 2.10 2.07 2.07 2.07 2.05 2.04 2.01 2.09 2.28 2.69 2.71 2.76 2.79 2.82 3.01 3.02 3.01 3.05 3.08 2.81 2.77 2.57 2.45 2.29 1.98 1.66 1.61 1.40 1.35 1.33 1.29 1.24 1.23 1.30 1.39
1.45 1.58 1.66 1.66 1.70 1.73 1.66 1.76 1.76 1.67 1.75 1.68 1.63 1.62 1.62 1.76 1.82 2.01 2.05 2.39 2.68 2.75 2.84 2.97 2.99 3.02 3.04 3.14 2.84 2.66 2.63 2.54 2.33 2.02 1.96 1.59 1.42 1.34 1.29 1.27 1.25 1.28 1.40
1.57 1.65 1.70 1.69 1.67 1.52 1.68 1.70 1.64 1.57 1.57 1.54 1.49 1.47 1.41 1.48 1.57 1.60 1.58 1.76 2.06 2.35 2.66 2.89 2.93 2.99 3.07 3.15 3.15 2.96 2.83 2.65 2.51 2.24 2.23 2.11 1.91 1.88 1.69 1.42 1.40 1.38 1.43
1.57 1.65 1.72 1.81 1.80 1.83 1.82 1.69 1.59 1.46 1.44 1.42 1.41 1.43 1.23 1.18 1.33 1.25 1.38 1.42 1.50 1.71 1.89 2.29 2.58 2.65 2.81 2.94 3.14 3.02 2.94 2.83 2.69 2.58 2.60 2.60 2.46 2.38 1.99 1.79 1.75 1.45 1.36
1.61 1.66 1.70 1.78 1.86 1.80 1.82 1.64 1.50 1.29 1.30 1.37 1.37 1.40 1.37 1.32 1.34 1.37 1.43 1.38 1.30 1.37 1.48 1.52 1.62 1.84 2.11 2.47 2.80 2.94 3.03 2.99 2.95 2.86 2.88 2.96 2.79 2.70 2.42 2.08 1.86 1.60 1.42
1.73 1.70 1.77 1.84 1.90 1.93 1.91 1.63 1.47 1.29 1.31 1.37 1.34 1.35 1.41 1.33 1.39 1.31 1.32 1.35 1.31 1.28 1.31 1.38 1.32 1.45 1.60 1.81 2.13 2.36 2.54 2.75 2.99 3.05 3.00 3.06 2.95 2.85 2.87 2.65 2.18 1.90 1.62
2.19 2.08 1.92 1.88 1.86 1.91 1.95 1.69 1.57 1.39 1.45 1.54 1.58 1.55 1.52 1.42 1.37 1.30 1.21 1.27 1.24 1.21 1.28 1.29 1.22 1.19 1.21 1.34 1.59 1.74 1.91 2.19 2.46 2.69 2.56 2.64 2.74 2.98 3.21 3.01 2.59 2.20 1.86